Location: Les Salelles
(44.4192°N, 4.1044°E)
Time: 17:03:50
(UTC+00:00)

CZ-4 R/B - Pass Details

Date: 20 January 2021
Orbit: 530 x 599 km, 97.7° (Epoch: 25 February)

Event Time Altitude Azimuth Distance (km) Brightness Sun altitude
Rises 19:25:57 0° 208° (SSW) 2,803 5.3 -29.9°
Reaches altitude 10° 19:28:52 10° 230° (SW) 1,897 4.6 -30.4°
Maximum altitude 19:31:23 16° 268° (W) 1,548 4.4 -30.9°
Drops below altitude 10° 19:33:55 10° 306° (NW) 1,882 4.7 -31.3°
Sets 19:36:48 0° 329° (NNW) 2,770 5.3 -31.9°
